User: anonymous   Login
Location: Fort Wayne
(41.1310°N, 85.1290°W)
Time: 09:41:42
(UTC-04:00)
Language:

Tiros 1 despin weight - Orbit

View from above orbital plane
View from above orbital plane
View from above satellite
View from above satellite

Ground track
Ground track

The orbit data is extracted from the following two-line orbital elements,

1 00115U 60002D   14302.83134287  .00004735  00000-0  62504-3 0  5031
2 00115 048.1653 078.6375 0036520 189.9365 292.9978 14.81008278907594
Epoch (UTC): 29 October 2014 19:57:08
Eccentricity: 0.0036520
inclination: 48.1653°
perigee height: 600 km
apogee height: 652 km
right ascension of ascending node: 78.6375°
argument of perigee: 189.9365°
revolutions per day: 14.81008278
mean anomaly at epoch: 292.9978°
orbit number at epoch: 90759

The dashed part of the orbit path shows where the satellite is in the earth's shadow,  

DLR